EST,Max TemperatureF,Mean TemperatureF,Min TemperatureF,Max Dew PointF,MeanDew PointF,Min DewpointF,Max Humidity, Mean Humidity, Min Humidity, Max Sea Level PressureIn, Mean Sea Level PressureIn, Min Sea Level PressureIn, Max VisibilityMiles, Mean VisibilityMiles, Min VisibilityMiles, Max Wind SpeedMPH, Mean Wind SpeedMPH, Max Gust SpeedMPH,PrecipitationIn, CloudCover, Events, WindDirDegrees
2013-1-1,31,19,7,27,12,-1,85,72,59,29.97,29.79,29.64,10,6,1,23,12,32,T,6,Snow,306
2013-1-2,12,0,-13,9,2,-15,95,80,65,30.27,29.98,29.81,10,5,1,21,7,26,0.01,6,Snow,312
2013-1-3,7,-5,-17,-3,-12,-22,100,78,55,30.27,30.16,29.98,10,8,2,5,0,5,T,3,Snow,65
2013-1-4,30,16,1,25,18,-3,92,81,61,29.96,29.81,29.73,10,5,1,20,5,31,0.00,8,Snow,257
2013-1-5,31,18,5,25,16,4,91,77,62,30.28,30.08,29.81,10,6,0,30,9,44,0.03,5,Fog-Snow,309
2013-1-6,30,19,7,28,19,5,100,92,84,30.23,29.97,29.88,10,3,1,10,2,13,0.05,8,Snow,164
2013-1-7,28,17,5,26,12,4,100,84,67,30.41,30.30,29.99,10,8,2,17,5,24,T,4,Snow,303
2013-1-8,36,25,13,21,16,12,92,74,56,30.43,30.31,30.20,10,9,5,14,4,17,0.00,0,,154
2013-1-9,42,25,7,29,16,5,100,80,59,30.43,30.23,29.94,10,6,1,25,7,37,T,2,Rain,229
2013-1-10,38,30,21,30,24,19,82,71,59,30.60,30.39,29.99,10,9,2,31,10,46,0.01,6,Snow,303
2013-1-11,34,24,14,32,22,13,100,78,56,30.60,30.38,30.16,10,9,5,18,5,24,0.04,4,Rain,176
2013-1-12,38,36,34,37,35,33,100,96,92,30.19,30.13,30.08,10,7,0,14,6,17,0.00,8,Fog,176
2013-1-13,43,38,32,40,36,32,100,93,86,30.17,30.05,29.92,10,4,0,18,2,21,0.00,6,Fog,200
2013-1-14,51,41,31,46,35,22,100,77,54,30.31,30.00,29.82,10,7,0,25,8,35,T,6,Fog-Rain,299
2013-1-15,35,29,22,23,19,17,84,71,58,30.38,30.31,30.24,10,9,1,12,3,15,0.00,6,,332
2013-1-16,46,36,27,27,24,19,78,60,42,30.27,29.95,29.76,10,4,0,13,3,,0.00,7,Snow,158
2013-1-17,24,14,3,18,2,-6,77,62,46,30.19,29.94,29.76,10,8,0,15,7,23,0.00,5,Snow,306
2013-1-18,15,3,-9,3,-7,-15,91,66,40,30.40,30.33,30.20,10,10,6,15,4,21,T,1,Snow,220
2013-1-19,38,26,13,23,15,3,88,68,48,30.27,30.05,29.79,10,6,1,15,7,24,0.01,8,Snow,178
2013-1-20,44,29,13,31,20,-1,89,67,45,29.96,29.63,29.42,10,7,0,30,14,45,0.02,6,Fog-Snow,248
2013-1-21,16,8,0,11,5,-3,92,69,46,30.09,29.92,29.76,10,5,1,14,3,21,0.04,6,Snow,352
2013-1-22,14,6,-3,9,1,-13,100,76,51,30.09,29.88,29.75,10,5,0,18,7,26,T,7,Fog-Snow,317
2013-1-23,-2,-8,-15,-6,-14,-19,87,69,50,30.21,30.11,29.99,10,7,1,17,8,23,T,4,Snow,326
2013-1-24,6,-7,-21,-9,-14,-23,81,62,42,30.37,30.22,30.06,10,8,2,28,9,43,T,3,Snow,308
2013-1-25,9,2,-5,-1,-8,-11,72,61,50,30.39,30.29,30.14,10,10,6,20,7,29,0.00,3,,316
2013-1-26,10,4,-2,5,0,-8,91,71,50,30.32,30.18,30.03,10,6,1,20,6,23,T,5,Snow,318
2013-1-27,14,7,0,5,-3,-10,83,60,36,30.54,30.41,30.23,10,8,1,18,8,26,T,2,Snow,309
2013-1-28,16,7,-3,14,7,-8,96,81,66,30.52,30.17,30.00,10,3,0,5,0,5,0.16,7,Fog-Snow,70
2013-1-29,31,20,9,29,20,9,100,89,78,30.24,30.13,30.03,10,8,1,14,3,17,T,7,Rain,166
2013-1-30,49,40,31,48,40,30,100,95,89,30.05,29.67,29.36,10,8,0,18,9,24,0.15,8,Fog-Rain,186
2013-1-31,49,35,21,48,30,5,100,73,45,29.53,29.16,28.87,10,9,2,30,15,47,0.43,8,Rain,238